DELTA 1 DEB, 4841

Orbit data source: Space-Track

DELTA 1 DEB, 4841 is space debris originally from a launch on Thu, 04 Jul 1968 UTC launched from the Air Force Western Test Range (AFWTR). Debris objects in space refer to the collection of defunct objects orbiting the Earth. Examples of debris include non-operational satellites, rocket bodies, and fragments generated from explosions, collisions, or faulty payload assembly.

Loading next visibility...
Identifier
4841, 1968-055D
Orbit
Active
Last TLE update
7 hours ago
Origin
Manufacturer
Unknown
Mission
Spacecraft
Bus & Motor
Unknown
Mass
Unknown
Launch date (UTC)
1968-07-04 (57 years ago)
Launch vehicle
Unknown
Launch site
Air Force Western Test Range (AFWTR)
Object type
Payload
Rocket body
Debris
Shape & HBR
Unknown
Radar Cross Section
Small (<0.1 m²)

Expand to show TLE details & history

TLE from 7 hours ago
0 DELTA 1 DEB
1  4841U 68055D   25129.54776493  .00000103  00000-0  20794-3 0  9994
2  4841 120.7446  28.0372 2692681  42.8784  18.5951  9.29140802391380
Epoch: 2025-05-09T13:08Z
Definitive object data (Epoch: 2025-05-09T13:08:46.889Z)
Latitude
56.50391°
Longitude
-100.12333°
Altitude
857.426 km
Speed
8.287 km/s
True Right ascension
21h 38m 41s
True Declination
56° 20' 51"
Sunlit
Object was in daylight at TLE epoch
Visualization TLE readout
Latitude
-2.07548°
Longitude
-35.08714°
Altitude
1,076.416 km
Speed
8.079 km/s
Apparent Right ascension
23h 16m 09s
Apparent Declination
-40° 57' 42"
Sunlit
Object is in daylight
Visualization observer readout
Local Sidereal Time
04:45:34
Azimuth
232.84° WSW
Elevation
-20.096°
Doppler factor
1
Orbital elements
Apogee altitude
5,752.282 km
Perigee altitude
605.481 km
Semi-major axis
9,557.019 km
Eccentricity
0.2692681
Inclination
120.7446°
RAAN
28.0372°
Arg. of periapsis
42.8784°
True anomaly
32.76888°
Mean anomaly
18.5951°
Eccentric anomaly
25.15239°
Mean motion
2.32306 °/min
BSTAR
0.00020794
Orbital period
154.97 mins
Loading maneuver chart data...
Loading SW <> Apogee altitude chart data...
Loading historical data...
Loading historical data...
Loading historical data...
Loading historical data...
Loading historical data...
Loading historical data...
Loading historical data...

DELTA 1 DEB Visibility forecast

Observer location: undefined°, undefined°

Span
Click to sort rows by Start time (UTC) header in descending order
Start Az.
Max El. time (UTC)
Max El. Az.
Max El.
End time (UTC)
End Az.
28 mins2025-05-10 04:55:24.978Z74.779° E2025-05-10 05:05:24.978Z125.922° SE25.405°2025-05-10 05:23:24.978Z178.252° S
27 mins2025-05-10 07:23:24.978Z45.169° ENE2025-05-10 07:31:24.978Z144.415° SSE44.843°2025-05-10 07:50:24.978Z224.173° SW
15 mins2025-05-10 09:54:24.978Z19.777° NNE2025-05-10 09:59:24.978Z324.338° NNW28.849°2025-05-10 10:09:24.978Z272.479° WNW
6 mins2025-05-10 14:51:24.978Z90.891° ESE2025-05-10 14:53:24.978Z41.9° NE29.761°2025-05-10 14:57:24.978Z330.658° NNW
|